GW6017 Weather Reports


time (UTC)temp
C
wind
direction
speed
KPH
gust
KPH
rain 1hr
cm
rain 24hr
cm
rain mn
cm
humidity
%
barometer
mb
20260506212517 12 90 14.5 20.9 0.00 0.00 0.00 66 1022.2
20260506212017 12 90 14.5 19.3 0.00 0.00 0.00 67 1022.3
20260506211517 12 90 14.5 20.9 0.00 0.00 0.00 67 1022.2
20260506211017 12 90 14.5 19.3 0.00 0.00 0.00 66 1022.2
20260506210519 12 90 14.5 20.9 0.00 0.00 0.00 66 1022.3
20260506210007 12 90 14.5 24.1 0.00 0.00 0.00 66 1022.2
20260506205519 12 90 14.5 20.9 0.00 0.00 0.00 66 1022.3
20260506205019 12 90 14.5 20.9 0.00 0.00 0.00 66 1022.3
20260506204538 12 90 16.1 25.7 0.00 0.00 0.00 66 1022.2
20260506204019 12 90 14.5 22.5 0.00 0.00 0.00 66 1022.2
20260506203520 12 90 16.1 25.7 0.00 0.00 0.00 66 1022.1
20260506203006 12 90 14.5 19.3 0.00 0.00 0.00 66 1022.0
20260506202520 12 90 16.1 22.5 0.00 0.00 0.00 65 1022.1
20260506202019 12 90 16.1 22.5 0.00 0.00 0.00 65 1022.1
20260506201519 12 113 16.1 25.7 0.00 0.00 0.00 64 1022.1
20260506201019 12 113 14.5 24.1 0.00 0.00 0.00 64 1022.1
20260506200519 13 113 16.1 24.1 0.00 0.00 0.00 64 1021.9
20260506200011 13 113 16.1 24.1 0.00 0.00 0.00 64 1021.9
20260506195519 13 113 17.7 27.4 0.00 0.00 0.00 63 1022.0
20260506195040 13 113 16.1 24.1 0.00 0.00 0.00 63 1022.0
20260506194519 13 113 16.1 24.1 0.00 0.00 0.00 63 1022.0
20260506194100 13 113 16.1 25.7 0.00 0.00 0.00 63 1022.0
20260506193600 13 113 14.5 24.1 0.00 0.00 0.00 62 1022.0
20260506193007 13 113 12.9 20.9 0.00 0.00 0.00 62 1022.0
20260506192519 13 113 12.9 22.5 0.00 0.00 0.00 62 1021.9
20260506192021 13 113 12.9 22.5 0.00 0.00 0.00 62 1022.1
20260506191519 13 113 12.9 19.3 0.00 0.00 0.00 62 1022.1
20260506191039 13 113 12.9 20.9 0.00 0.00 0.00 62 1022.2
20260506190519 13 113 12.9 24.1 0.00 0.00 0.00 62 1022.2
20260506190029 13 113 12.9 22.5 0.00 0.00 0.00 61 1022.1
20260506185519 13 113 12.9 19.3 0.00 0.00 0.00 61 1022.1
20260506185019 13 113 12.9 24.1 0.00 0.00 0.00 61 1022.2
20260506184519 13 113 12.9 19.3 0.00 0.00 0.00 61 1022.3
20260506184019 13 113 14.5 22.5 0.00 0.00 0.00 61 1022.3
20260506183521 13 113 12.9 20.9 0.00 0.00 0.00 61 1022.2
20260506183010 13 113 14.5 22.5 0.00 0.00 0.00 61 1022.3
20260506182520 13 113 16.1 22.5 0.00 0.00 0.00 61 1022.2
20260506182019 13 113 16.1 24.1 0.00 0.00 0.00 60 1022.2
20260506181540 13 113 16.1 22.5 0.00 0.00 0.00 61 1022.3
20260506181019 13 113 16.1 24.1 0.00 0.00 0.00 61 1022.3
20260506180519 13 113 14.5 24.1 0.00 0.00 0.00 61 1022.3
20260506180026 13 113 16.1 22.5 0.00 0.00 0.00 60 1022.3
20260506175518 13 113 14.5 22.5 0.00 0.00 0.00 60 1022.4
20260506175019 13 113 16.1 22.5 0.00 0.00 0.00 60 1022.3
20260506174519 13 113 16.1 20.9 0.00 0.00 0.00 59 1022.3
20260506174019 14 113 17.7 25.7 0.00 0.00 0.00 59 1022.3
20260506173518 14 113 16.1 22.5 0.00 0.00 0.00 59 1022.2
20260506173007 14 113 16.1 24.1 0.00 0.00 0.00 59 1022.3
20260506172518 14 90 16.1 22.5 0.00 0.00 0.00 59 1022.2
20260506172019 14 90 14.5 24.1 0.00 0.00 0.00 58 1022.2
20260506171518 14 113 16.1 24.1 0.00 0.00 0.00 58 1022.1
20260506171018 14 113 17.7 25.7 0.00 0.00 0.00 58 1022.1
20260506170519 14 113 16.1 22.5 0.00 0.00 0.00 58 1022.2
20260506170007 14 113 16.1 25.7 0.00 0.00 0.00 58 1022.1
20260506165518 14 113 16.1 24.1 0.00 0.00 0.00 58 1022.1
20260506165039 14 113 16.1 24.1 0.00 0.00 0.00 58 1022.1
20260506164600 14 113 14.5 24.1 0.00 0.00 0.00 58 1022.0
20260506164018 14 113 12.9 20.9 0.00 0.00 0.00 58 1022.1
20260506163518 14 113 12.9 19.3 0.00 0.00 0.00 58 1022.0
20260506163028 14 113 12.9 24.1 0.00 0.00 0.00 58 1022.1
20260506162519 14 113 14.5 20.9 0.00 0.00 0.00 58 1022.1
20260506162018 14 113 14.5 22.5 0.00 0.00 0.00 58 1022.0
20260506161519 14 113 16.1 22.5 0.00 0.00 0.00 58 1022.1
20260506161039 14 113 14.5 22.5 0.00 0.00 0.00 59 1022.1
20260506160519 14 113 12.9 19.3 0.00 0.00 0.00 59 1022.1
20260506160014 14 113 12.9 20.9 0.00 0.00 0.00 59 1022.0
20260506155518 14 113 12.9 24.1 0.00 0.00 0.00 59 1022.0
20260506155038 14 113 12.9 24.1 0.00 0.00 0.00 59 1022.0
20260506154517 14 113 11.3 19.3 0.00 0.00 0.00 58 1021.9
20260506154018 14 113 12.9 19.3 0.00 0.00 0.00 58 1022.0
20260506153518 14 113 11.3 19.3 0.00 0.00 0.00 58 1022.0
20260506153052 14 113 9.7 17.7 0.00 0.00 0.00 58 1022.1
20260506152518 14 113 11.3 20.9 0.00 0.00 0.00 58 1022.1
20260506152017 14 113 9.7 20.9 0.00 0.00 0.00 58 1022.1
20260506151518 14 113 11.3 20.9 0.00 0.00 0.00 57 1022.2
20260506151018 15 113 9.7 19.3 0.00 0.00 0.00 56 1022.1
20260506150517 15 113 11.3 19.3 0.00 0.00 0.00 56 1022.2
20260506150007 15 113 11.3 20.9 0.00 0.00 0.00 56 1022.3
20260506145518 15 113 11.3 19.3 0.00 0.00 0.00 56 1022.3
20260506145020 15 113 11.3 19.3 0.00 0.00 0.00 55 1022.3
20260506144517 15 135 9.7 16.1 0.00 0.00 0.00 55 1022.3
20260506144018 15 135 9.7 17.7 0.00 0.00 0.00 54 1022.4
20260506143538 14 135 8.0 16.1 0.00 0.00 0.00 55 1022.3
20260506143028 14 135 9.7 17.7 0.00 0.00 0.00 54 1022.3
20260506142538 14 135 8.0 14.5 0.00 0.00 0.00 54 1022.2
20260506142017 15 135 9.7 16.1 0.00 0.00 0.00 54 1022.2
20260506141518 15 135 9.7 16.1 0.00 0.00 0.00 54 1022.1
20260506141017 15 135 8.0 14.5 0.00 0.00 0.00 54 1022.1
20260506140538 14 135 8.0 16.1 0.00 0.00 0.00 54 1022.1
20260506140008 14 135 6.4 11.3 0.00 0.00 0.00 55 1022.1
20260506135518 13 135 8.0 12.9 0.00 0.00 0.00 55 1021.9
20260506135017 13 158 8.0 14.5 0.00 0.00 0.00 55 1022.1
20260506134538 13 158 9.7 12.9 0.00 0.00 0.00 55 1022.0
20260506134017 13 158 8.0 14.5 0.00 0.00 0.00 56 1021.9
20260506133538 13 158 4.8 8.0 0.00 0.00 0.00 56 1021.9
20260506133047 13 158 6.4 9.7 0.00 0.00 0.00 55 1021.9
20260506132517 14 158 4.8 8.0 0.00 0.00 0.00 52 1021.8
20260506132017 15 158 3.2 8.0 0.00 0.00 0.00 49 1021.9
20260506131538 16 135 4.8 9.7 0.00 0.00 0.00 47 1021.9
20260506131017 16 135 4.8 9.7 0.00 0.00 0.00 46 1021.8
20260506130517 16 113 6.4 12.9 0.00 0.00 0.00 46 1021.9
20260506130007 16 135 4.8 11.3 0.00 0.00 0.00 46 1021.9
20260506125518 17 113 6.4 11.3 0.00 0.00 0.00 45 1021.7
20260506124517 17 113 8.0 16.1 0.00 0.00 0.00 45 1021.7
20260506124018 17 113 8.0 14.5 0.00 0.00 0.00 45 1021.7
20260506123538 17 113 8.0 16.1 0.00 0.00 0.00 45 1021.7
20260506123008 17 113 9.7 14.5 0.00 0.00 0.00 45 1021.7
20260506122517 17 113 6.4 12.9 0.00 0.00 0.00 45
20260506122019 17 113 8.0 14.5 0.00 0.00 0.00 45
20260506121520 17 113 8.0 16.1 0.00 0.00 0.00 45
20260506121017 17 135 6.4 12.9 0.00 0.00 0.00 45
20260506120517 17 113 8.0 12.9 0.00 0.00 0.00 45
20260506120007 17 113 6.4 14.5 0.00 0.00 0.00 45
20260506115538 17 113 6.4 12.9 0.00 0.00 0.00 45 1021.2
20260506115100 17 113 6.4 11.3 0.00 0.00 0.00 44 1021.1
20260506114538 17 113 6.4 12.9 0.00 0.00 0.00 44 1021.1
20260506114019 17 135 6.4 12.9 0.00 0.00 0.00 44 1021.0
20260506113519 17 113 6.4 14.5 0.00 0.00 0.00 43 1021.0
20260506113011 17 113 6.4 12.9 0.00 0.00 0.00 43 1021.0
20260506112517 17 113 6.4 12.9 0.00 0.00 0.00 43 1020.9
20260506112020 17 113 4.8 11.3 0.00 0.00 0.00 43 1020.8
20260506111519 17 113 6.4 11.3 0.00 0.00 0.00 43 1020.6
20260506111019 17 135 4.8 8.0 0.00 0.00 0.00 43 1020.6
20260506110519 18 113 4.8 11.3 0.00 0.00 0.00 42 1020.4
20260506110028 18 113 6.4 11.3 0.00 0.00 0.00 42 1020.4
20260506105519 18 113 6.4 12.9 0.00 0.00 0.00 42 1020.4
20260506105019 18 113 6.4 12.9 0.00 0.00 0.00 42 1020.4
20260506104519 18 135 6.4 14.5 0.00 0.00 0.00 41 1020.3
20260506104041 18 113 6.4 16.1 0.00 0.00 0.00 41 1020.4
20260506103519 18 135 8.0 14.5 0.00 0.00 0.00 40 1020.3
20260506103010 18 135 9.7 20.9 0.00 0.00 0.00 40 1020.2
20260506102520 19 135 12.9 20.9 0.00 0.00 0.00 39 1020.2
20260506102019 19 135 9.7 19.3 0.00 0.00 0.00 39 1020.2
20260506101519 19 135 9.7 17.7 0.00 0.00 0.00 39 1020.2
20260506101019 19 158 11.3 17.7 0.00 0.00 0.00 38 1020.3
20260506100519 20 135 11.3 19.3 0.00 0.00 0.00 38 1020.3
20260506100016 20 158 12.9 19.3 0.00 0.00 0.00 38 1020.2
20260506095519 20 135 11.3 19.3 0.00 0.00 0.00 37 1020.2
20260506095020 20 135 11.3 19.3 0.00 0.00 0.00 37 1020.2
20260506094539 20 135 8.0 16.1 0.00 0.00 0.00 36 1020.1
20260506094019 21 135 9.7 16.1 0.00 0.00 0.00 36 1020.1
20260506093600 21 135 11.3 19.3 0.00 0.00 0.00 35 1020.0
20260506093010 21 135 8.0 19.3 0.00 0.00 0.00 34 1020.1
20260506092540 21 113 11.3 19.3 0.00 0.00 0.00 33 1020.0
20260506092019 22 113 11.3 20.9 0.00 0.00 0.00 32 1020.0
20260506091540 22 113 8.0 14.5 0.00 0.00 0.00 32 1019.9
20260506091019 22 113 9.7 20.9 0.00 0.00 0.00 32 1019.9
20260506090539 22 113 14.5 29.0 0.00 0.00 0.00 31 1019.8
20260506090007 22 113 14.5 22.5 0.00 0.00 0.00 31 1020.0
20260506085519 22 113 14.5 24.1 0.00 0.00 0.00 31 1019.9
20260506085018 22 113 11.3 22.5 0.00 0.00 0.00 31 1019.9
20260506084519 22 113 16.1 29.0 0.00 0.00 0.00 30 1019.9
20260506084039 22 135 16.1 27.4 0.00 0.00 0.00 30 1019.8
20260506083519 23 135 12.9 20.9 0.00 0.00 0.00 30 1019.8
20260506083007 23 113 14.5 24.1 0.00 0.00 0.00 30 1019.8
20260506082519 23 113 14.5 27.4 0.00 0.00 0.00 29 1019.8
20260506082022 23 113 14.5 29.0 0.00 0.00 0.00 29 1019.8
20260506081519 23 135 12.9 19.3 0.00 0.00 0.00 29 1019.7
20260506081019 23 113 14.5 24.1 0.00 0.00 0.00 29 1019.7
20260506080519 23 113 14.5 22.5 0.00 0.00 0.00 29 1019.7
20260506073519 23 113 12.9 22.5 0.00 0.00 0.00 29 1019.8
20260506073018 23 113 12.9 24.1 0.00 0.00 0.00 29 1019.7
20260506072518 23 90 16.1 25.7 0.00 0.00 0.00 29 1019.7
20260506072018 23 113 12.9 22.5 0.00 0.00 0.00 30 1019.8
20260506071539 23 113 17.7 25.7 0.00 0.00 0.00 30 1019.8
20260506071018 23 113 11.3 20.9 0.00 0.00 0.00 30 1019.7
20260506070519 23 113 12.9 25.7 0.00 0.00 0.00 30 1019.8
20260506062018 23 113 16.1 30.6 0.00 0.00 0.00 31 1019.9
20260506061518 23 113 12.9 24.1 0.00 0.00 0.00 32 1019.9
20260506061018 23 113 12.9 24.1 0.00 0.00 0.00 33 1019.9
20260506060518 23 113 16.1 29.0 0.00 0.00 0.00 32 1020.0
20260506051100 22 113 17.7 27.4 0.00 0.00 0.00 35 1020.5
20260506050518 22 113 17.7 27.4 0.00 0.00 0.00 35 1020.5
20260506045018 22 113 12.9 24.1 0.00 0.00 0.00 37 1020.8
20260506044518 22 113 17.7 27.4 0.00 0.00 0.00 36 1020.8
20260506044018 22 90 17.7 27.4 0.00 0.00 0.00 36 1020.9
20260506043539 22 90 17.7 27.4 0.00 0.00 0.00 36 1020.9
20260506043010 22 113 14.5 30.6 0.00 0.00 0.00 38 1021.1
20260506042518 22 113 16.1 27.4 0.00 0.00 0.00 37 1021.2
20260506042018 22 90 20.9 32.2 0.00 0.00 0.00 37 1021.2
20260506041518 21 113 16.1 27.4 0.00 0.00 0.00 38 1021.1
20260506041039 21 113 17.7 32.2 0.00 0.00 0.00 38 1021.1
20260506040518 22 90 19.3 32.2 0.00 0.00 0.00 38 1021.2
20260506040009 22 90 17.7 27.4 0.00 0.00 0.00 38 1021.4
20260506035518 22 90 17.7 32.2 0.00 0.00 0.00 38 1021.5
20260506035039 21 90 19.3 32.2 0.00 0.00 0.00 39 1021.7
20260506034518 21 90 19.3 29.0 0.00 0.00 0.00 39 1021.8
20260506034018 21 113 19.3 30.6 0.00 0.00 0.00 40 1021.8
20260506033539 21 90 19.3 33.8 0.00 0.00 0.00 39 1021.9
20260506033007 21 90 20.9 29.0 0.00 0.00 0.00 40 1021.9
20260506032518 21 90 19.3 38.6 0.00 0.00 0.00 40 1022.0
20260506032018 21 90 17.7 27.4 0.00 0.00 0.00 41 1021.9
20260506031518 21 90 16.1 29.0 0.00 0.00 0.00 41 1022.2
20260506031039 21 90 14.5 20.9 0.00 0.00 0.00 42 1022.3
20260506030518 21 90 19.3 32.2 0.00 0.00 0.00 41 1022.4
20260506030006 20 90 16.1 29.0 0.00 0.00 0.00 43 1022.5
20260506025520 20 90 19.3 27.4 0.00 0.00 0.00 43 1022.5
20260506025039 20 90 19.3 30.6 0.00 0.00 0.00 43 1022.4
20260506024518 20 90 19.3 27.4 0.00 0.00 0.00 43 1022.4
20260506024018 20 90 19.3 30.6 0.00 0.00 0.00 44 1022.5
20260506023518 20 68 25.7 33.8 0.00 0.00 0.00 44 1022.6
20260506023007 20 90 17.7 25.7 0.00 0.00 0.00 44 1022.6
20260506022620 20 68 22.5 37.0 0.00 0.00 0.00 45 1022.6
20260506022018 20 90 17.7 27.4 0.00 0.00 0.00 46 1022.7
20260506021518 20 90 19.3 25.7 0.00 0.00 0.00 45 1022.8
20260506021018 20 90 19.3 27.4 0.00 0.00 0.00 46 1022.8
20260506020518 19 90 19.3 27.4 0.00 0.00 0.00 46 1022.9
20260506020006 19 90 19.3 30.6 0.00 0.00 0.00 47 1022.8
20260506015518 19 68 20.9 32.2 0.00 0.00 0.00 47 1022.8
20260506015039 19 68 22.5 37.0 0.00 0.00 0.00 47 1022.9
20260506014518 18 68 24.1 35.4 0.00 0.00 0.00 48 1022.9
20260506014017 18 68 24.1 33.8 0.00 0.00 0.00 48 1022.9
20260506013518 18 90 19.3 30.6 0.00 0.00 0.00 49 1022.9
20260506013007 18 90 17.7 27.4 0.00 0.00 0.00 49 1022.9
20260506012517 18 90 20.9 27.4 0.00 0.00 0.00 50 1023.2
20260506012038 18 90 17.7 27.4 0.00 0.00 0.00 50 1023.2
20260506011518 17 90 19.3 32.2 0.00 0.00 0.00 51 1023.1
20260506011017 17 90 17.7 27.4 0.00 0.00 0.00 52 1023.1
20260506010517 17 90 16.1 27.4 0.00 0.00 0.00 54 1023.1
20260506010008 16 90 12.9 20.9 0.00 0.00 0.00 55 1023.0
20260506005600 16 90 12.9 20.9 0.00 0.00 0.00 57 1023.0
20260506005018 16 90 12.9 19.3 0.00 0.00 0.00 58 1022.9
20260506004518 16 90 12.9 17.7 0.00 0.00 0.00 58 1022.8
20260506004018 15 90 14.5 22.5 0.00 0.00 0.00 59 1022.9
20260506003517 15 90 14.5 24.1 0.00 0.00 0.00 59 1022.8
20260506003007 15 90 12.9 19.3 0.00 0.00 0.00 59 1022.6
20260506002539 15 90 16.1 24.1 0.00 0.00 0.00 60 1022.7
20260506002038 15 90 14.5 20.9 0.00 0.00 0.00 60 1022.7
20260506001538 14 90 16.1 24.1 0.00 0.00 0.00 61 1022.6
20260506001017 14 90 17.7 25.7 0.00 0.00 0.00 61 1022.6
20260506000518 14 68 17.7 25.7 0.00 0.00 0.00 61 1022.7
20260506000006 -17 0.0 0.0 0.00 0.00 0.00
20260505233518 13 68 19.3 27.4 0.00 0.00 0.00 63 1022.0
20260505233013 12 68 17.7 24.1 0.00 0.00 0.00 64 1021.9
20260505232518 12 68 17.7 24.1 0.00 0.00 0.00 65 1021.9
20260505232038 12 68 14.5 19.3 0.00 0.00 0.00 65 1022.0
20260505231518 12 68 16.1 22.5 0.00 0.00 0.00 65 1021.9
20260505231018 12 68 14.5 19.3 0.00 0.00 0.00 66 1021.7
20260505230539 12 68 14.5 19.3 0.00 0.00 0.00 66 1021.7
20260505230007 11 68 12.9 17.7 0.00 0.00 0.00 67 1021.6
20260505225518 11 68 12.9 17.7 0.00 0.00 0.00 67 1021.5
20260505225018 11 68 14.5 19.3 0.00 0.00 0.00 67 1021.5
20260505224518 11 68 14.5 17.7 0.00 0.00 0.00 67 1021.4
20260505224018 11 68 11.3 16.1 0.00 0.00 0.00 66 1021.6
20260505223559 11 68 11.3 14.5 0.00 0.00 0.00 65 1021.5
20260505223028 11 68 12.9 17.7 0.00 0.00 0.00 65 1021.5
20260505222518 12 90 12.9 17.7 0.00 0.00 0.00 65 1021.5
20260505222018 12 90 12.9 17.7 0.00 0.00 0.00 64 1021.4
20260505221518 12 90 12.9 19.3 0.00 0.00 0.00 64 1021.3
20260505221018 11 68 14.5 19.3 0.00 0.00 0.00 65 1021.2
20260505220518 11 90 12.9 17.7 0.00 0.00 0.00 65 1021.2
20260505220006 11 90 12.9 17.7 0.00 0.00 0.00 65 1021.2
20260505215519 11 90 11.3 17.7 0.00 0.00 0.00 65 1021.1
20260505215018 11 90 11.3 16.1 0.00 0.00 0.00 64 1021.1
20260505214517 11 90 11.3 14.5 0.00 0.00 0.00 64 1021.1
20260505214038 11 90 9.7 14.5 0.00 0.00 0.00 64 1020.8
20260505213518 11 90 8.0 11.3 0.00 0.00 0.00 64 1020.7
20260505213009 11 90 9.7 17.7 0.00 0.00 0.00 64 1020.7